Theta_e
283 283 283 282 282 281 281 281 280 281 280 280 280 280 280 280 279 279 279 279 279 278 278 278 278 278 277 277 277 276 276 276 275 275 274 274 274 274 274 274 274 274 274 273 273 273 273 273 273 273 273 272 272 272 272 272 273 273 273 272 272 272 271 270 269 269 271 273 272 272 272 272 271 272 272 272 272 273 275 274 274 273 274 274 274
283 283 282 283 282 282 281 281 281 280 280 280 280 280 280 279 279 279 279 279 279 279 278 278 277 277 277 277 276 276 276 275 275 274 274 274 274 274 274 274 273 273 273 273 272 273 272 272 272 272 272 272 271 271 271 271 271 271 271 272 271 271 272 270 269 268 268 270 271 272 271 272 271 272 272 271 272 273 273 273 274 274 274 274 274
284 283 283 282 282 282 281 281 280 280 280 279 279 279 279 279 279 279 279 279 279 278 278 277 277 277 276 276 276 275 275 275 274 274 274 274 273 273 274 274 273 273 272 272 272 272 271 271 271 271 271 270 271 271 271 271 271 271 271 271 270 270 271 271 269 267 267 268 270 270 270 271 271 271 272 273 273 273 273 273 274 275 275 275 275
284 283 283 282 282 281 281 281 280 280 279 279 279 278 278 279 279 279 279 279 278 278 277 277 277 276 276 275 275 275 275 274 274 274 274 274 273 273 273 273 273 272 272 272 271 271 271 271 270 271 270 270 269 269 270 270 270 270 270 271 271 270 271 270 270 270 267 267 268 270 271 270 271 272 273 273 273 273 273 274 274 274 274 275 275
284 283 282 282 281 281 281 280 280 279 279 279 278 278 278 279 279 279 278 278 278 277 277 277 277 277 276 275 275 275 274 274 274 274 274 274 274 274 273 273 273 272 272 272 273 271 271 271 271 270 270 270 269 269 269 269 269 270 269 270 270 270 271 271 270 270 268 267 268 270 271 271 272 272 272 272 273 273 273 273 273 274 274 275 276
284 283 282 282 281 281 281 280 280 280 280 280 279 279 279 279 279 278 278 278 278 278 277 277 277 277 276 276 275 275 275 274 273 273 273 274 274 274 273 273 273 272 271 271 272 271 271 271 271 270 270 270 270 269 269 269 269 269 269 269 269 269 269 270 270 270 269 268 268 268 270 270 271 272 273 273 272 272 272 273 273 274 274 274 275
284 283 282 282 281 281 281 280 281 281 280 280 280 279 279 279 279 279 279 279 278 278 278 277 277 277 277 276 275 275 275 274 273 274 274 274 274 273 273 272 271 271 271 271 271 271 271 271 271 270 270 270 270 270 269 269 269 269 269 269 269 268 268 268 269 269 269 268 268 269 270 271 272 271 273 273 273 272 271 271 271 273 274 274 273
283 282 282 281 281 281 281 281 281 281 281 280 279 279 279 279 279 279 279 278 278 278 278 277 277 277 276 276 275 275 274 274 274 273 273 273 274 273 272 272 272 271 271 271 271 271 271 271 271 271 271 271 271 270 270 269 269 269 269 269 269 268 268 267 267 268 268 268 268 269 271 272 272 273 273 272 271 271 273 271 270 271 272 274 273
283 282 282 281 281 282 282 281 281 281 280 280 279 279 279 279 279 279 279 278 278 278 278 278 277 276 276 276 275 275 274 274 274 274 273 273 273 273 272 272 273 272 271 271 271 271 271 271 271 271 272 274 275 275 273 273 270 269 269 269 268 268 266 265 265 265 265 267 268 271 272 272 272 271 270 270 270 270 271 272 271 273 273 272 272
283 283 282 282 282 282 281 281 281 280 280 280 279 279 279 279 279 278 278 278 278 278 277 277 277 276 275 275 275 275 274 275 276 278 277 274 273 273 273 273 273 272 271 271 271 271 271 271 271 275 275 276 277 278 278 278 277 273 270 269 268 267 264 262 263 264 266 267 269 271 271 271 271 270 270 271 272 272 272 272 271 272 271 270 270
283 283 282 282 282 282 281 281 281 280 280 280 280 279 279 279 278 278 278 278 277 277 277 276 276 276 275 275 274 274 274 275 278 280 280 279 275 274 273 273 272 272 271 271 271 271 271 271 270 273 275 276 276 278 279 279 279 279 278 276 274 269 264 264 264 265 267 269 271 272 272 271 271 271 272 272 272 272 272 272 271 270 268 267 265
283 283 282 282 282 281 281 281 280 280 280 280 280 279 279 278 278 278 278 277 277 276 276 276 276 276 275 275 274 274 274 277 280 281 282 281 278 274 274 273 272 272 272 271 271 270 270 271 271 271 271 272 272 273 277 279 280 279 279 279 278 278 276 270 268 268 271 271 272 273 272 271 271 272 271 271 271 272 273 272 270 269 267 267 267
283 282 282 282 282 281 281 281 280 280 280 280 279 279 278 278 278 277 277 277 277 276 276 276 275 275 275 275 274 274 274 278 281 283 283 283 281 277 274 273 272 272 272 271 270 270 270 270 270 271 271 274 274 271 270 271 277 279 279 279 278 278 279 279 278 275 275 274 273 272 272 272 271 271 272 272 274 272 271 270 269 269 268 267 267
282 282 282 282 281 281 281 281 280 280 280 279 279 278 278 278 278 278 277 277 276 276 276 276 276 275 275 274 274 274 274 277 281 283 284 284 283 279 273 273 272 272 272 271 271 270 270 269 269 269 270 271 272 271 270 269 269 270 270 270 269 272 277 279 279 279 278 276 274 271 272 273 271 272 273 274 273 270 270 268 269 268 267 267 267
282 282 282 281 281 281 281 280 280 279 279 279 279 278 278 278 278 278 277 277 276 276 276 275 275 275 275 275 274 274 274 278 281 283 284 284 284 282 273 272 272 272 271 271 271 270 270 270 270 269 269 269 270 271 270 269 267 267 266 266 267 268 269 271 272 274 275 275 275 274 274 274 273 273 274 275 273 272 271 269 269 268 267 267 266
282 282 281 281 281 280 280 280 280 279 279 279 278 278 278 278 277 278 277 277 277 276 276 276 275 275 275 274 274 273 274 279 281 283 284 285 285 281 273 272 272 271 270 271 271 271 270 270 270 269 269 269 272 276 274 270 267 264 265 265 266 267 269 273 276 277 277 276 275 275 275 275 276 275 277 275 273 271 271 270 267 264 263 262 261
282 282 281 281 281 280 281 280 280 279 279 278 278 278 278 278 278 278 277 277 277 276 276 276 276 275 275 274 273 274 274 277 280 282 284 285 284 279 274 273 272 270 270 271 271 271 270 270 270 270 269 269 272 276 278 277 268 265 265 265 266 267 269 272 277 279 280 280 280 279 279 279 278 278 277 276 274 272 269 265 261 260 261 260 261
282 282 282 282 281 281 281 281 280 280 279 278 278 279 278 279 278 278 277 276 276 276 276 276 275 275 275 274 274 274 274 276 280 282 283 285 284 279 276 274 273 272 271 271 271 270 271 273 272 270 270 270 274 277 278 277 272 269 268 267 267 268 270 274 275 276 279 279 279 278 277 277 275 274 273 273 273 272 265 262 261 260 259 260 260
283 283 283 283 282 282 281 281 281 280 280 279 279 279 279 278 278 278 277 277 277 276 275 275 275 274 274 274 276 274 274 275 278 280 282 284 284 280 276 274 273 273 273 272 272 271 270 272 274 274 272 272 276 277 278 277 273 272 272 271 271 271 272 274 274 272 273 272 271 271 271 272 268 266 266 271 271 270 268 264 261 259 259 260 260
284 284 284 283 283 282 282 281 281 281 280 280 279 279 279 278 277 277 276 276 276 275 274 275 274 274 274 273 273 273 272 272 274 279 281 283 284 280 275 274 273 273 273 272 270 270 270 269 272 277 278 278 277 278 278 279 274 272 273 272 272 271 274 274 274 273 272 272 271 271 270 269 267 266 265 264 265 265 266 266 265 261 260 259 260
284 284 283 283 282 282 282 282 281 281 281 280 280 279 278 278 277 276 275 275 274 273 273 273 273 273 272 271 270 270 270 270 272 277 280 282 284 283 275 275 275 273 272 271 269 269 268 269 269 273 278 279 279 279 279 279 279 275 274 273 273 275 276 273 273 276 272 270 268 267 266 265 264 263 263 263 264 264 265 267 266 265 263 260 260
284 283 283 282 282 282 281 281 282 281 281 280 279 278 277 277 277 276 275 274 273 273 272 271 271 271 271 270 269 269 270 272 270 274 278 280 283 284 279 276 276 273 272 270 269 268 269 269 268 271 276 278 279 280 281 280 280 277 276 278 279 279 277 275 272 270 267 266 264 263 262 261 260 259 259 260 262 263 264 264 266 266 265 265 263
283 282 282 282 281 281 281 280 280 280 279 279 279 278 277 276 275 274 273 273 272 272 272 271 270 270 270 269 269 268 268 269 273 271 275 278 281 283 284 281 280 275 272 271 270 270 269 268 269 272 274 276 278 280 280 281 280 279 280 280 281 280 280 269 268 266 265 264 263 263 263 261 260 259 259 260 262 263 264 265 265 265 265 265 266
282 281 281 281 280 280 280 280 280 279 279 278 278 277 275 275 274 273 273 272 272 271 271 271 270 270 270 271 271 270 269 268 270 274 273 276 278 281 283 284 284 277 273 272 272 271 269 268 268 273 275 276 278 279 280 280 279 280 281 281 281 280 274 267 267 265 264 263 263 263 263 262 260 259 259 260 262 263 264 264 264 265 265 265 265
280 280 280 280 279 280 279 279 279 278 278 278 277 277 275 273 273 272 271 272 272 272 272 271 270 270 271 271 272 272 270 268 267 270 275 276 277 278 280 281 283 284 279 274 273 271 272 274 274 275 276 277 277 278 279 279 280 280 280 280 279 277 269 267 265 263 263 263 263 263 262 261 261 261 262 263 263 264 262 261 262 262 262 262 263
279 279 279 279 278 278 278 277 277 277 276 277 277 277 276 274 274 273 271 272 271 272 272 271 270 270 270 271 271 272 270 268 268 267 270 272 275 277 278 279 279 281 282 281 279 278 277 277 277 277 277 276 275 274 274 274 278 279 280 279 278 273 268 267 265 264 264 263 263 262 262 260 260 261 262 262 260 259 258 257 258 259 257 258 258
278 276 276 276 274 275 276 276 275 275 275 276 276 276 276 275 274 273 272 271 271 271 271 271 271 270 270 271 271 271 270 268 267 265 264 265 267 269 272 274 277 278 277 277 279 279 278 278 277 278 277 277 277 276 276 276 275 276 276 276 272 268 268 267 266 266 265 263 261 260 260 260 260 259 258 257 258 258 258 258 257 258 258 258 258
274 273 273 272 273 274 276 273 275 275 275 275 275 274 274 274 274 274 272 272 271 271 271 271 271 271 271 271 271 270 270 268 267 265 264 264 264 265 266 267 268 270 271 273 275 276 277 278 278 277 276 275 275 274 274 273 273 273 273 270 267 266 267 269 268 264 263 263 261 258 257 257 256 257 256 256 257 257 257 256 256 257 258 259 258
271 270 270 270 272 272 273 272 273 274 273 272 273 273 273 273 274 273 272 271 272 272 271 272 272 271 271 271 269 269 269 269 268 272 268 270 266 265 264 265 267 267 271 274 274 274 275 275 275 274 274 273 272 273 273 273 272 272 271 269 267 265 265 264 264 262 261 259 259 259 258 256 257 255 254 254 256 256 256 256 257 257 258 257 258
270 269 269 270 268 269 269 269 268 270 270 270 269 269 271 277 274 272 270 275 277 278 277 272 269 266 269 270 269 270 271 270 275 276 276 276 276 275 273 273 273 270 272 275 275 273 273 273 274 273 273 273 272 272 272 271 270 268 266 268 266 263 263 263 263 263 261 260 260 258 258 257 257 256 254 255 256 256 257 260 257 258 257 257 257
270 268 268 268 268 267 266 266 266 266 266 266 266 267 266 268 276 278 278 277 277 277 279 279 280 278 271 269 270 276 277 277 278 278 278 278 278 278 278 278 277 277 278 274 272 272 272 271 272 273 273 273 272 272 271 270 268 268 267 265 265 264 264 262 262 261 260 260 259 258 258 257 258 257 256 256 256 256 255 255 255 255 255 256 256
269 267 266 265 266 266 265 265 264 264 263 263 263 264 264 265 267 273 276 277 278 279 279 279 279 279 280 278 273 268 274 277 278 278 279 279 279 279 279 279 279 279 279 279 273 271 271 270 270 271 272 272 272 271 271 270 269 267 267 266 265 264 263 263 263 262 260 259 258 258 258 258 258 257 257 257 257 256 255 256 254 255 255 254 256
266 264 263 264 264 265 263 262 262 262 262 262 262 261 262 263 265 266 266 273 274 275 276 278 279 279 280 280 280 279 279 278 278 279 279 279 279 279 279 280 280 280 280 277 274 272 271 270 270 271 271 271 271 271 270 270 269 269 268 267 266 265 264 264 266 263 260 259 259 259 259 258 258 257 257 257 256 255 254 255 255 255 255 255 256
263 263 263 263 263 262 261 261 261 261 261 261 260 260 261 261 262 261 262 264 265 268 272 273 274 274 275 276 278 278 279 279 279 279 279 279 279 279 278 277 279 280 278 275 274 273 272 271 270 271 271 271 270 270 269 269 269 269 268 268 267 267 266 265 263 262 260 261 261 259 259 258 258 257 256 255 255 254 255 256 255 254 254 255 255
261 263 264 263 261 262 261 262 261 259 260 260 260 261 262 261 262 261 260 260 261 262 262 263 267 271 270 271 273 275 276 277 278 278 278 279 279 280 280 276 274 274 275 276 275 274 273 272 271 271 271 270 270 269 269 269 268 268 268 267 267 267 265 263 262 262 261 260 260 259 259 259 257 257 257 256 254 254 255 255 254 254 254 255 256
261 262 261 260 260 260 259 259 259 260 259 259 258 259 260 260 261 259 259 259 258 258 258 259 260 265 269 271 272 273 273 274 275 276 276 277 278 278 275 274 273 273 273 274 274 274 273 273 272 272 271 270 270 270 269 269 268 268 268 267 266 265 264 263 262 261 260 260 259 259 259 258 258 257 256 255 255 255 255 255 254 254 255 255 256
261 260 261 259 258 259 258 257 257 259 264 260 259 257 258 259 259 257 257 256 257 256 256 255 256 260 265 264 268 269 271 272 272 273 274 275 275 272 270 270 271 272 272 272 273 273 273 272 271 271 271 270 270 270 269 269 268 267 267 266 265 265 263 263 262 261 260 259 259 258 258 258 257 256 256 255 255 254 254 254 254 255 256 257 258
260 260 259 257 256 257 257 257 259 263 259 258 257 258 257 256 257 257 257 256 257 257 255 255 261 256 257 261 265 264 266 268 269 268 268 268 268 267 267 267 267 267 267 267 267 267 267 267 267 267 267 267 267 266 266 266 265 265 264 264 264 263 264 263 263 262 260 260 259 258 258 257 257 256 256 255 254 254 254 255 254 253 254 256 256
260 265 266 266 264 259 256 257 258 256 256 257 257 257 257 256 255 255 254 253 253 253 255 253 253 255 256 257 258 261 262 259 259 258 260 261 263 264 264 264 265 265 265 265 265 265 265 265 265 265 265 265 265 265 264 264 264 263 263 263 263 262 262 262 261 261 260 259 258 258 258 257 257 256 255 254 254 254 254 254 254 254 253 254 254
259 259 262 263 261 262 258 257 256 255 256 254 253 254 254 254 254 255 254 254 253 253 253 254 255 254 255 256 258 260 260 260 259 258 259 261 261 261 262 262 262 262 262 262 263 263 263 263 263 263 263 263 263 263 263 262 262 262 262 261 261 261 260 260 260 260 260 259 259 258 258 257 257 256 254 254 254 254 254 254 254 254 254 254 254
259 259 261 262 261 257 257 256 255 253 253 253 252 252 253 255 255 254 253 254 254 254 254 254 253 254 258 264 267 267 262 261 260 259 259 258 258 259 259 260 261 260 260 260 260 260 260 260 260 261 261 261 262 261 261 261 261 261 261 260 260 260 260 260 259 259 259 259 259 258 258 257 256 255 254 254 256 256 255 255 254 254 254 254 254
255 255 255 255 257 255 255 255 254 257 254 255 253 253 255 255 254 253 255 255 256 256 255 255 253 253 260 265 265 265 258 257 258 257 257 257 256 256 256 256 257 257 257 257 257 257 258 257 258 258 259 259 259 259 260 260 260 260 260 260 259 259 258 258 258 258 257 257 257 257 256 256 255 255 255 257 254 254 254 253 253 253 253 253 253
255 254 254 255 254 254 254 254 253 252 253 253 253 257 256 253 253 255 255 255 255 255 253 252 251 252 255 261 260 260 252 251 255 253 253 253 252 253 251 251 250 250 250 250 250 250 251 250 251 251 252 253 253 253 254 254 255 256 257 257 257 256 255 255 255 255 255 255 255 255 255 255 256 255 254 253 253 253 253 253 253 253 253 253 252
254 254 254 254 253 253 253 251 253 253 252 255 255 254 254 253 253 252 252 252 252 252 251 251 251 251 251 253 254 252 249 249 248 248 250 251 250 250 249 248 248 249 250 249 249 248 247 248 249 249 248 249 250 249 250 251 251 252 252 253 254 254 253 251 252 253 254 254 253 254 254 253 253 252 253 254 253 252 252 251 252 252 252 250 251
251 252 252 252 252 251 252 252 252 253 255 253 251 251 253 251 251 251 251 250 252 251 250 250 251 250 250 248 249 249 248 246 250 250 248 247 248 248 247 247 248 248 249 248 248 246 246 246 246 247 247 248 249 249 249 249 249 250 250 251 251 253 253 252 253 253 253 252 253 252 252 253 252 252 252 252 252 251 252 251 251 253 253 253 252
251 252 253 252 252 252 251 249 252 249 250 249 247 247 247 246 246 249 250 250 250 250 249 249 248 249 249 247 248 249 248 246 247 247 248 247 246 247 246 246 246 246 247 248 248 246 247 247 246 247 248 248 249 249 248 247 248 249 247 248 251 252 253 252 250 251 252 252 253 252 252 252 252 252 252 251 251 251 251 250 249 251 251 251 252
250 251 252 251 251 251 251 251 248 248 246 248 248 248 248 248 248 250 251 251 250 250 249 247 246 246 246 246 246 246 247 247 246 247 246 247 245 246 245 245 245 247 247 247 245 247 247 248 246 246 247 248 247 248 248 247 246 247 247 248 250 250 251 251 251 250 251 251 252 250 252 252 252 251 253 253 252 252 251 251 251 250 251 251 251
248 249 249 249 248 248 247 246 248 251 247 248 248 249 249 249 248 248 247 247 247 247 247 245 244 243 246 246 246 246 246 246 246 247 246 247 245 246 245 244 246 247 246 248 246 246 246 246 246 245 247 247 248 248 248 247 246 247 246 247 248 249 251 252 250 250 250 250 250 250 251 252 251 251 252 252 251 250 251 251 250 250 250 250 251
247 247 247 248 248 248 248 248 249 247 248 248 248 247 248 247 247 246 245 246 246 246 245 245 245 245 244 245 246 246 246 247 246 245 246 247 246 244 246 245 246 247 246 247 248 247 246 246 247 246 247 246 247 247 247 248 248 247 246 246 249 253 254 254 253 250 252 252 251 251 250 251 251 251 251 251 251 250 250 250 249 250 250 250 251
247 247 248 248 248 248 247 246 246 246 247 247 247 246 246 246 245 246 245 245 245 245 244 245 246 245 245 246 246 247 246 247 247 247 247 247 247 246 247 247 246 245 245 245 246 247 246 245 245 246 246 246 246 246 246 246 247 248 246 248 253 254 254 255 255 255 253 250 251 250 250 250 250 250 250 250 250 250 249 250 249 250 250 249 249
248 248 248 248 247 247 246 245 245 245 245 245 244 244 246 245 245 244 245 244 244 245 246 246 245 245 245 246 246 247 247 246 248 247 247 248 247 246 247 247 247 246 245 246 247 247 246 246 245 247 245 247 247 247 246 247 246 247 250 253 254 254 255 255 254 254 255 254 250 250 250 250 249 249 249 249 248 248 249 250 249 249 249 249 250
Wind_Speed
11 11 11 10 11 12 11 10 10 8 8 9 10 9 8 8 8 8 7 8 8 8 8 9 9 8 8 8 8 8 7 7 5 5 5 5 4 5 5 5 6 5 6 6 5 6 6 6 5 4 3 4 3 3 3 2 2 2 1 2 2 1 2 2 4 8 5 2 1 3 3 4 5 3 7 6 7 6 6 6 7 7 8 7 8
12 10 10 10 12 11 11 8 9 8 10 9 9 9 9 9 8 8 9 8 8 9 9 8 8 8 8 8 7 7 7 7 7 6 6 5 4 4 6 6 6 6 5 6 5 5 6 7 5 4 3 4 3 3 3 2 2 2 1 3 3 2 1 3 3 3 7 2 6 3 3 3 7 4 6 10 9 8 8 6 6 5 7 8 8
10 10 10 11 12 11 9 9 9 9 11 9 9 9 8 7 7 10 9 8 7 8 9 9 9 8 7 7 7 7 8 8 6 6 5 6 6 5 6 7 8 8 6 6 6 5 6 6 5 4 3 4 3 3 2 3 2 3 3 2 2 2 2 1 2 3 5 6 1 5 3 5 5 8 7 6 7 7 9 9 8 7 6 6 7
11 11 10 10 10 10 10 9 10 10 11 9 10 9 8 8 8 9 8 8 9 7 6 8 8 8 8 8 8 8 7 7 6 6 7 7 7 8 7 6 6 6 7 7 6 6 7 6 5 6 4 5 3 3 3 3 4 3 4 3 3 3 2 2 2 3 2 6 3 3 7 7 6 5 7 7 6 7 7 8 7 7 7 6 6
11 10 11 11 10 11 11 11 12 12 11 9 10 9 9 8 8 9 8 8 8 8 7 7 8 9 10 10 10 8 8 8 8 7 6 5 7 7 7 6 6 6 6 6 7 7 7 7 7 6 5 5 4 4 4 4 4 4 5 4 4 4 2 3 3 3 4 7 7 5 5 6 6 7 6 8 9 6 4 6 7 7 7 6 6
11 12 11 12 12 13 12 11 13 13 12 11 11 10 9 9 8 7 8 9 8 8 9 8 9 10 9 10 9 9 9 9 9 8 7 7 7 6 6 6 6 5 5 5 6 6 7 6 7 6 6 7 6 5 5 6 4 5 5 5 4 3 3 3 3 4 5 6 5 8 5 7 9 5 5 6 9 11 10 5 3 4 7 9 8
11 12 12 12 11 13 13 13 12 11 11 10 9 9 9 8 8 8 7 8 9 9 8 8 7 8 8 8 8 9 9 8 7 7 7 8 9 8 7 6 5 4 4 5 5 5 6 6 6 7 7 6 6 7 6 5 6 6 6 6 4 4 4 4 4 4 4 5 5 5 8 6 6 10 6 4 5 6 9 12 12 8 6 7 10
12 12 12 12 12 13 12 10 10 10 9 8 9 9 9 8 8 7 7 9 9 9 9 9 7 6 6 7 6 6 6 7 7 7 7 8 8 7 7 7 6 4 4 4 5 5 5 6 6 6 7 7 7 6 7 7 5 6 6 5 4 4 5 4 4 4 4 4 6 7 7 9 6 4 5 6 6 4 3 7 11 12 12 9 7
12 12 12 13 13 11 9 9 8 9 9 9 10 10 10 9 9 8 8 8 7 7 6 6 7 7 5 6 6 6 7 7 7 8 9 9 8 8 7 7 7 6 5 5 5 5 5 5 5 6 6 8 11 9 8 8 6 6 5 5 5 5 4 4 4 3 3 4 6 6 8 9 7 8 8 6 6 8 8 7 8 9 10 12 9
13 13 13 13 10 9 9 8 9 9 10 11 10 9 9 9 8 8 8 7 7 7 7 7 7 8 8 7 6 6 6 6 8 14 12 10 9 7 7 7 7 6 6 6 6 6 6 5 5 9 10 11 12 14 14 14 13 9 7 6 6 5 5 5 5 4 4 5 5 6 9 7 7 7 7 6 7 8 8 9 11 11 10 11 11
12 12 12 9 9 9 9 9 9 10 10 9 7 9 9 8 8 7 7 8 8 7 7 8 8 7 8 7 8 7 7 7 13 16 16 15 10 8 8 7 7 7 6 7 8 7 6 6 5 7 9 10 10 15 15 15 16 16 14 13 10 9 6 6 5 5 4 6 6 6 7 9 10 7 7 8 7 7 9 9 10 10 10 10 13
12 11 10 10 10 10 10 9 10 10 9 9 8 7 7 7 7 7 6 6 7 5 7 8 7 7 7 7 8 8 8 9 15 17 17 16 12 8 7 7 7 7 8 8 7 6 7 7 6 6 6 6 5 6 10 15 16 16 15 15 15 16 13 10 7 5 6 6 6 6 5 8 9 8 7 6 8 9 8 9 10 9 10 10 10
11 10 10 10 10 10 9 10 10 8 8 8 8 8 8 8 8 8 10 7 5 7 9 8 9 8 8 9 9 8 7 11 17 18 18 17 16 11 6 7 7 8 8 8 7 7 6 7 7 6 6 10 8 6 6 6 10 14 14 15 15 16 16 17 15 9 6 6 6 6 5 7 9 7 5 9 10 9 7 8 9 9 9 10 10
11 11 9 9 9 9 10 9 9 8 7 8 8 9 9 11 9 7 6 6 8 8 7 9 8 9 9 9 9 8 9 12 18 19 18 18 17 13 6 7 7 7 9 8 7 8 8 8 7 7 6 6 6 7 6 6 6 6 6 4 4 7 12 14 15 16 12 7 4 6 5 6 6 8 9 9 8 6 7 8 9 9 9 10 12
10 11 11 10 9 8 9 9 8 8 8 8 8 9 9 8 8 8 8 10 10 11 10 10 9 9 9 8 8 8 9 13 18 20 19 19 18 13 7 6 6 7 7 7 8 7 7 7 7 7 6 6 7 7 7 7 5 6 6 6 5 6 6 6 6 5 5 5 5 7 7 5 7 9 9 6 6 7 6 9 9 7 9 9 8
10 9 10 10 10 10 10 9 9 9 9 8 9 9 9 10 10 8 7 7 6 5 6 6 9 9 9 8 8 10 9 16 18 19 20 19 20 9 8 8 8 8 7 8 7 7 7 7 7 7 7 7 9 15 12 7 6 6 8 7 6 6 7 8 12 11 9 7 7 8 7 7 11 11 8 6 4 4 5 4 4 5 6 8 9
11 10 10 10 10 11 11 12 11 9 9 9 9 9 9 9 8 6 8 8 8 9 9 10 9 9 9 9 10 11 8 12 18 19 19 20 15 8 8 7 7 8 9 8 7 7 7 7 8 7 7 8 11 15 17 14 7 9 8 8 7 6 7 7 13 16 16 16 16 15 15 16 14 11 12 15 11 7 3 4 6 2 5 8 10
12 12 11 10 11 11 11 10 10 9 9 10 10 9 8 6 8 7 9 10 10 11 9 7 7 8 9 11 11 11 10 10 16 17 18 19 14 9 8 8 8 8 8 7 6 7 8 14 12 9 9 9 13 17 18 14 9 9 9 8 9 9 8 6 6 8 15 17 16 15 15 13 8 9 10 12 12 8 2 6 4 1 5 4 8
10 11 11 10 9 9 9 9 9 9 10 10 10 10 10 10 8 7 7 7 8 6 6 7 7 7 8 10 8 10 9 8 14 16 18 19 14 7 7 7 8 9 8 9 7 7 7 10 18 16 12 11 16 17 19 15 9 9 9 9 10 11 9 7 7 6 5 4 4 3 3 3 2 3 5 10 11 8 5 4 3 4 6 5 6
9 7 6 7 7 8 7 9 9 10 11 9 9 10 8 7 8 9 8 7 7 6 6 7 9 9 7 8 8 9 8 7 8 16 17 18 19 9 6 8 11 11 9 9 8 8 8 8 13 20 22 20 19 19 18 20 12 9 8 9 10 12 6 7 8 7 7 7 7 6 6 3 3 4 4 4 5 3 6 5 4 3 5 5 5
6 6 6 7 7 8 8 9 11 10 10 10 9 8 7 8 7 8 8 7 6 7 7 7 8 8 6 6 6 7 7 8 8 14 16 18 20 16 9 11 11 9 9 9 9 9 9 10 9 16 20 21 20 20 20 20 19 11 11 11 11 9 7 7 8 13 7 5 5 3 3 2 3 3 4 5 5 5 5 6 5 5 5 5 6
7 8 8 8 8 9 10 9 9 9 8 7 8 8 7 8 8 9 7 7 9 9 7 6 7 8 6 6 6 8 6 9 8 12 16 18 19 22 12 13 12 9 9 9 9 9 12 9 8 11 18 19 20 21 22 21 22 13 12 18 18 18 13 8 6 5 5 5 4 4 4 5 5 4 4 4 6 5 5 6 6 6 6 6 6
8 8 8 8 8 9 9 10 9 8 8 9 9 9 7 8 7 7 8 8 8 9 9 8 7 8 7 7 7 8 8 8 14 11 15 18 21 22 23 14 14 10 10 12 13 12 8 6 6 10 15 17 19 21 21 24 19 16 21 20 21 20 16 5 6 6 5 5 5 5 5 5 6 6 5 5 5 5 6 6 6 6 6 6 7
7 8 8 8 8 8 8 9 8 7 8 8 8 8 7 7 7 7 7 8 7 8 8 7 7 9 10 10 9 9 8 7 10 15 13 19 21 22 22 23 18 11 10 12 11 8 7 7 6 12 15 17 20 20 21 21 15 21 22 23 22 20 7 8 6 6 6 5 5 5 6 5 5 5 5 5 5 5 6 5 6 6 6 6 7
7 7 7 7 7 7 6 6 7 7 7 8 8 7 7 7 7 6 7 7 8 9 9 8 9 10 9 10 10 8 7 7 8 11 17 17 19 20 20 20 22 24 14 12 11 9 9 13 14 16 17 19 21 20 18 21 25 23 23 22 20 10 6 7 7 6 6 6 6 6 6 7 7 6 5 4 4 5 4 4 4 5 5 6 7
6 6 6 5 6 5 6 5 5 6 7 7 8 8 9 9 9 7 7 8 9 9 9 7 8 8 9 10 10 9 5 6 7 6 8 11 12 17 20 21 21 21 21 16 15 18 19 19 21 20 19 18 13 11 10 10 18 23 23 21 12 7 7 7 7 8 7 6 7 8 8 5 3 4 3 3 3 5 3 3 4 6 4 4 5
5 4 5 4 4 5 7 7 6 6 7 6 6 7 7 8 8 8 8 9 8 8 8 7 8 7 9 10 9 7 6 6 5 4 5 6 8 9 10 12 15 17 13 12 15 12 13 16 13 17 14 19 20 17 16 15 13 13 11 10 6 6 7 8 8 8 7 7 7 6 5 4 2 2 3 3 4 5 3 4 4 5 5 5 5
5 4 4 4 4 5 6 6 7 5 5 6 6 5 4 5 7 8 9 9 8 8 7 8 9 9 9 9 7 6 8 7 6 6 7 7 7 6 7 8 8 8 10 11 10 11 10 10 14 11 11 11 12 10 10 9 9 8 8 5 4 4 5 5 4 4 4 4 4 3 2 3 4 5 3 3 4 5 3 4 3 5 4 4 4
4 3 3 3 2 1 1 1 2 2 2 2 1 1 5 5 6 5 2 5 6 7 7 8 8 6 7 7 6 8 8 8 7 8 9 11 11 8 8 9 9 9 13 16 11 10 10 10 9 10 10 10 9 10 9 8 8 8 9 7 5 5 5 5 7 7 6 5 6 6 7 5 6 3 3 3 5 5 3 3 4 5 4 3 6
4 4 3 3 3 3 2 2 1 1 2 2 2 2 2 2 4 5 5 4 8 11 8 7 5 4 7 7 6 9 11 5 2 9 13 15 18 19 17 16 16 13 14 19 14 10 11 11 11 10 9 8 8 10 10 9 8 7 6 5 5 6 6 7 6 6 6 7 6 6 6 6 6 5 4 5 5 4 4 5 3 2 3 4 6
5 5 4 4 3 3 3 3 2 2 1 1 1 1 3 4 3 5 6 6 7 8 11 13 13 10 8 7 6 13 15 15 16 14 14 14 15 16 18 18 19 19 20 12 9 11 11 10 11 9 9 10 11 11 8 7 7 7 7 6 7 8 7 7 7 6 6 6 6 6 6 6 6 5 6 5 5 4 3 3 3 4 4 5 6
6 4 5 3 3 3 4 3 3 2 2 1 1 1 1 3 5 3 4 7 8 10 12 12 13 14 15 14 8 4 9 13 15 16 16 17 17 17 17 18 18 19 18 19 11 10 9 9 9 10 10 9 10 6 6 6 6 7 7 7 9 7 8 8 7 7 7 6 6 7 6 6 6 6 6 5 5 4 3 4 3 4 4 4 6
6 4 4 4 4 3 3 3 2 2 1 1 1 1 1 1 4 5 3 5 6 6 8 10 11 14 15 15 17 15 13 11 13 15 16 16 17 17 17 18 18 19 18 12 10 10 8 8 9 8 8 9 7 6 6 7 7 8 8 9 9 8 8 9 6 7 6 8 7 6 6 6 6 6 6 6 6 5 3 4 4 4 4 5 6
5 4 4 3 5 3 3 2 2 1 1 1 1 1 1 1 2 2 4 7 6 4 4 6 9 11 11 11 12 14 14 15 16 16 16 17 17 16 15 12 17 18 15 10 9 9 8 8 9 9 8 7 7 7 7 8 8 8 7 7 8 7 7 6 6 7 6 7 7 6 5 6 6 6 6 5 5 4 4 5 4 4 4 5 6
6 6 7 5 4 4 3 2 2 2 2 1 1 0 0 0 0 0 1 2 3 4 5 6 6 6 6 7 9 10 11 12 13 13 14 15 15 16 16 10 8 6 7 7 7 7 8 8 8 8 8 8 8 7 8 8 7 8 8 9 8 7 6 6 7 7 7 6 6 6 6 7 6 6 6 6 5 5 5 5 5 5 5 5 6
5 5 4 4 4 3 3 3 2 2 1 1 1 1 1 1 1 1 2 1 2 3 4 4 4 6 10 8 8 8 9 10 9 9 9 9 10 11 7 7 7 6 6 6 7 7 5 6 6 7 7 7 7 7 7 8 8 8 8 8 8 7 7 7 6 7 7 6 6 6 6 6 6 6 5 5 6 6 5 5 5 4 4 5 5
5 5 4 3 3 5 4 3 3 3 4 3 4 3 2 2 3 1 2 1 1 2 3 4 5 7 4 3 5 9 12 10 10 10 9 9 10 6 5 6 5 4 4 3 3 4 5 3 2 3 3 4 5 5 6 7 6 6 6 6 6 6 7 7 7 6 6 6 6 6 6 7 6 6 6 7 5 5 5 5 4 5 6 7 7
5 5 5 4 4 4 4 5 3 4 3 3 2 3 2 1 1 0 1 1 1 1 3 5 4 3 4 6 7 4 7 9 10 8 9 9 7 4 4 3 3 3 4 4 4 4 4 4 4 4 4 4 4 4 3 3 3 2 3 3 4 5 7 6 7 6 6 6 5 6 6 6 6 6 6 6 6 5 5 6 5 5 5 6 5
4 6 7 6 5 4 4 4 4 4 3 3 2 3 3 2 1 0 0 0 1 2 3 2 3 4 5 4 6 5 6 5 6 5 5 5 4 4 4 4 4 4 4 5 5 5 5 5 5 5 5 5 4 4 4 3 3 2 2 2 3 3 4 4 5 5 5 6 6 5 6 6 5 6 6 6 6 6 6 5 5 5 5 5 5
5 4 5 6 5 4 5 5 4 4 4 3 3 2 2 2 1 0 1 1 1 1 1 2 2 3 5 4 4 4 3 5 4 5 4 5 5 4 4 4 4 4 4 4 5 4 5 5 5 5 5 4 4 3 3 3 3 2 2 3 4 5 5 5 5 5 6 6 6 5 6 6 6 6 5 6 6 6 6 6 6 5 5 5 6
4 4 5 5 5 5 5 5 5 3 3 4 3 4 2 2 2 2 1 1 1 1 1 1 1 3 4 5 9 9 5 4 3 4 5 4 4 4 4 4 4 4 4 4 4 4 4 4 5 5 5 4 4 4 4 3 3 3 3 4 4 5 5 5 5 5 5 5 5 5 5 5 5 6 6 6 6 6 6 5 5 5 5 5 5
6 5 4 4 5 4 5 5 5 4 4 5 3 3 4 3 1 1 2 1 2 1 1 1 2 3 7 9 8 10 6 3 3 3 3 3 3 4 3 3 3 3 3 3 3 3 3 3 4 4 4 4 4 4 4 4 4 4 4 4 4 4 4 5 4 5 4 5 5 6 5 5 5 5 6 5 5 5 5 5 5 5 5 5 4
5 4 3 5 4 4 4 2 2 4 3 3 2 2 3 2 1 2 2 2 1 2 1 1 2 2 3 7 7 7 3 2 3 2 2 2 2 3 3 5 3 3 2 3 3 2 3 3 3 3 4 5 4 4 4 5 5 5 4 4 5 5 5 5 4 5 5 5 6 5 4 5 5 5 6 5 5 5 5 5 5 5 5 5 5
4 5 5 4 4 3 3 3 3 3 2 3 2 4 3 2 2 2 2 2 1 1 1 1 1 2 2 4 5 5 2 2 2 2 2 3 3 4 4 4 5 5 6 4 4 3 3 4 4 5 4 4 4 3 4 5 4 5 4 5 5 5 5 5 5 6 6 5 5 5 5 5 5 5 5 6 5 5 5 4 5 5 5 4 5
4 4 4 5 3 4 3 2 2 2 4 4 3 2 4 2 2 1 1 1 2 1 1 1 1 1 4 3 4 3 3 2 4 4 3 3 3 5 5 5 4 5 5 5 4 3 4 4 4 4 5 5 6 5 5 5 4 4 4 5 5 6 6 6 6 6 6 5 5 5 5 5 5 5 5 5 5 4 5 5 5 4 5 5 5
4 3 5 3 4 5 4 3 4 2 3 2 3 2 2 2 1 1 2 1 1 0 1 1 1 1 2 3 3 4 4 3 3 2 5 3 3 5 4 5 5 5 5 5 5 3 4 3 3 4 5 5 6 5 4 4 5 5 4 4 6 6 6 5 4 3 5 5 5 5 5 5 5 5 6 5 5 4 5 4 4 5 5 5 5
4 4 2 4 3 4 4 3 2 3 3 2 2 1 1 1 1 1 1 1 0 1 1 1 1 2 2 2 3 4 4 2 4 4 4 5 4 5 4 4 4 5 6 5 3 5 5 5 4 4 5 5 6 6 6 5 4 5 4 5 6 6 6 5 6 4 5 5 5 4 5 5 5 5 6 5 4 5 5 5 5 5 5 6 5
4 5 4 4 3 3 2 2 2 3 2 2 1 1 1 1 1 1 1 1 1 2 1 2 2 2 3 3 3 3 4 4 4 5 4 6 4 5 4 3 4 5 5 6 4 4 4 4 5 5 5 6 6 6 6 6 5 6 5 5 6 5 6 6 5 5 5 4 4 5 5 6 5 5 5 5 5 4 5 5 4 4 5 4 5
4 4 4 3 3 1 2 1 3 1 1 0 1 1 2 1 1 1 1 1 1 2 2 3 4 3 3 4 4 4 4 5 4 4 5 6 4 4 5 4 4 5 4 5 6 5 5 5 5 5 6 6 6 6 6 6 6 5 4 5 6 10 11 10 7 5 5 4 4 4 4 5 6 6 5 5 6 5 5 4 4 4 4 4 4
3 3 2 2 2 1 2 2 1 0 1 1 1 1 1 2 2 2 2 2 2 3 3 3 4 4 4 5 6 6 4 4 6 6 6 5 6 4 5 5 5 5 5 5 5 6 5 4 5 5 5 5 6 6 5 5 5 6 5 6 9 12 11 12 12 10 7 5 6 5 5 5 5 5 5 5 5 5 5 5 5 5 4 4 5
3 2 2 1 1 0 0 0 1 0 0 1 1 1 2 2 4 4 3 4 5 5 4 4 4 4 4 4 5 5 5 4 5 5 5 6 5 5 5 5 6 5 5 6 6 6 6 5 5 6 5 5 6 6 5 6 5 6 8 11 12 11 11 10 7 8 11 6 4 5 5 6 5 6 6 5 5 5 7 5 5 5 4 5 5
Wind_Direction
177 181 173 177 172 178 178 175 174 166 166 173 168 168 167 167 170 164 147 163 158 159 161 159 157 156 155 155 150 148 142 138 130 133 144 160 173 161 153 148 141 142 135 127 123 128 132 133 140 141 138 139 155 152 137 122 98 90 101 113 154 224 170 206 230 281 291 225 189 293 315 314 305 296 305 307 310 307 301 293 292 298 304 305 307
181 173 177 174 179 180 179 175 169 166 171 173 173 171 170 171 166 154 167 163 165 165 163 160 157 157 156 150 145 142 142 142 147 148 160 165 168 169 159 155 148 145 138 137 137 135 135 134 144 149 164 150 164 159 149 134 130 124 219 161 208 222 249 166 261 260 285 324 310 300 294 306 299 302 314 320 316 313 309 304 296 289 298 303 304
176 173 175 179 182 180 176 175 169 172 173 176 176 172 172 170 167 167 167 165 169 171 165 160 158 156 151 149 147 151 155 156 154 150 162 171 170 178 180 167 157 153 151 154 150 142 134 140 156 156 159 151 170 163 142 164 163 166 200 205 200 250 237 195 158 271 291 300 274 317 309 314 304 309 309 295 294 299 306 313 314 309 296 294 296
176 175 179 182 179 174 181 175 173 177 180 179 176 174 172 173 170 171 168 164 167 169 163 157 154 157 152 153 161 162 158 150 151 166 176 182 180 178 178 175 163 158 157 159 156 153 151 148 166 165 165 160 173 164 176 169 179 190 192 221 204 222 222 212 243 212 282 298 300 335 308 315 306 293 294 290 290 303 304 300 295 295 295 293 292
175 178 178 178 179 181 182 180 182 182 182 177 178 172 175 173 175 173 164 170 169 160 160 159 161 162 164 169 170 169 164 159 165 176 185 189 187 177 174 169 160 157 165 165 161 157 160 166 170 167 163 164 185 180 185 189 198 190 202 216 212 220 223 215 222 246 258 274 289 289 291 294 291 297 298 312 313 302 281 287 300 300 305 304 304
179 176 180 181 183 186 186 183 188 186 181 178 177 176 174 176 175 173 172 170 168 172 165 171 176 176 173 173 171 165 164 169 174 175 177 185 185 174 166 164 156 155 165 169 164 167 166 172 171 170 169 174 193 192 187 197 195 202 209 219 215 218 214 234 233 232 250 261 274 299 310 312 310 294 296 307 319 320 320 304 286 299 318 322 320
180 180 181 185 185 190 189 189 186 184 182 178 171 171 174 174 174 176 175 174 172 173 176 177 188 179 174 170 174 170 167 168 170 173 180 185 178 159 158 155 150 157 173 172 170 170 171 173 175 177 181 187 189 194 191 198 196 209 209 210 217 201 221 228 234 241 242 266 277 273 295 294 295 307 316 306 289 291 310 328 327 327 318 325 324
181 182 181 185 189 192 191 183 182 182 176 169 171 171 170 172 176 172 170 179 182 180 178 182 180 177 175 177 171 163 164 170 174 176 184 188 175 164 163 157 155 170 175 180 179 180 180 181 182 187 189 194 192 196 185 197 197 210 214 204 208 199 216 226 238 240 253 273 279 295 292 299 296 275 302 316 315 298 316 325 316 323 325 328 330
181 183 184 189 194 188 179 178 175 171 170 168 172 175 175 175 174 174 181 183 182 179 172 174 171 176 177 174 170 171 179 184 181 180 181 186 173 162 164 163 165 175 186 189 194 189 189 189 193 196 198 200 201 198 197 194 185 206 220 195 204 201 212 225 223 237 265 268 278 283 295 299 302 319 319 326 333 326 324 323 307 311 318 316 322
182 184 189 191 183 177 174 172 175 171 170 178 178 175 176 175 174 177 183 181 174 175 174 176 182 183 179 180 175 178 188 189 189 190 191 180 170 167 153 166 172 182 189 198 205 204 199 196 204 202 205 209 214 218 217 216 208 195 200 189 196 197 205 208 223 227 240 253 260 287 297 290 307 311 304 310 318 315 315 320 319 322 321 312 304
186 187 190 181 174 167 169 176 173 178 179 173 170 174 175 173 177 181 182 181 178 174 172 180 188 188 186 182 183 191 195 194 195 198 193 183 172 168 172 176 178 187 199 202 207 205 206 205 206 215 215 219 221 224 226 223 224 220 213 200 192 187 193 204 218 212 218 247 255 263 278 295 300 301 300 313 312 314 316 319 322 323 324 327 320
185 186 181 175 173 171 173 171 175 180 174 176 173 172 169 172 180 183 180 180 181 167 183 193 189 191 189 188 194 198 199 198 200 201 194 187 178 171 173 177 183 195 202 210 214 204 206 206 211 205 214 215 213 228 231 228 228 231 234 231 224 215 202 187 199 216 228 243 252 262 279 286 295 299 306 313 310 310 312 320 315 315 314 310 306
181 182 182 178 174 170 168 171 177 178 181 173 167 165 173 177 180 182 191 185 167 183 196 190 198 196 195 196 201 199 202 201 203 203 198 192 183 174 179 182 186 201 205 211 212 209 203 208 213 212 209 214 215 213 220 238 241 238 235 235 237 239 240 231 217 210 210 233 254 268 264 290 290 294 308 302 306 306 323 318 310 304 300 297 297
179 178 173 178 171 169 169 172 178 177 171 171 170 176 179 188 188 184 170 168 188 195 196 200 200 203 203 202 203 200 205 206 206 206 201 195 189 181 184 187 197 203 209 210 212 211 208 207 208 216 206 205 211 208 211 217 220 240 251 261 266 266 252 246 248 251 257 261 256 268 276 267 281 295 291 296 310 319 319 310 308 297 297 294 297
179 175 173 171 165 164 168 170 172 171 174 176 177 181 185 185 185 186 182 189 191 196 197 199 205 206 206 205 205 208 213 207 210 209 204 196 194 184 177 192 198 210 215 215 216 214 215 214 213 214 202 203 209 205 204 207 205 220 232 241 245 240 244 251 254 251 244 250 256 268 274 271 274 277 278 295 317 316 311 298 303 308 300 296 288
180 174 177 172 166 164 165 170 174 177 177 176 181 186 187 191 192 186 186 196 200 198 211 207 210 209 207 203 207 218 219 210 213 213 208 199 194 181 175 192 201 210 219 219 218 219 216 215 216 217 207 207 213 217 214 196 204 216 230 240 243 244 242 237 238 235 233 226 229 239 241 258 262 260 270 308 325 317 293 300 321 316 312 303 297
178 176 179 170 170 171 173 175 179 175 174 178 188 191 191 195 195 182 193 200 198 203 205 209 209 205 206 205 211 222 221 212 214 218 215 204 194 183 179 190 203 209 222 218 218 218 218 217 221 220 215 216 210 218 223 216 199 213 222 233 237 241 245 237 244 244 242 244 253 266 277 280 289 303 308 315 315 306 319 315 285 299 311 308 302
186 186 182 177 177 173 174 173 174 176 175 187 192 197 198 199 201 189 197 199 205 210 208 211 212 208 209 212 212 217 224 211 214 220 221 213 203 192 185 193 206 211 222 221 216 224 223 224 226 223 221 222 210 219 221 221 212 204 210 222 234 241 242 223 219 236 243 251 254 262 274 277 301 321 324 313 305 302 291 268 263 289 280 271 289
184 184 184 179 172 165 166 169 173 176 187 195 194 196 198 200 195 186 205 208 217 206 201 211 217 217 217 221 213 217 229 216 214 220 222 219 211 196 187 195 210 219 218 229 222 219 227 228 230 229 225 223 219 221 222 220 221 211 209 218 232 238 234 215 215 213 218 225 251 239 256 271 345 303 297 303 296 294 287 265 259 259 266 270 281
183 170 154 153 154 158 164 173 181 186 196 195 192 200 192 185 187 190 201 203 209 202 200 211 219 226 218 219 223 221 227 227 217 223 222 222 217 196 184 191 219 220 216 223 224 230 225 227 233 233 231 228 226 225 224 224 220 214 208 220 229 239 218 216 212 204 211 208 220 208 227 242 279 296 289 279 278 267 264 257 247 236 244 261 266
145 144 141 147 159 169 176 182 189 196 195 195 192 189 187 192 185 187 195 196 198 207 207 213 222 233 223 223 223 231 223 229 226 224 228 226 223 210 196 212 221 217 218 222 224 228 230 228 226 230 231 231 229 227 226 227 227 216 215 220 226 233 217 204 206 213 211 187 178 173 221 255 259 267 270 267 266 254 254 265 257 250 249 247 265
144 156 168 173 175 177 183 189 190 192 187 176 180 190 193 188 190 191 187 189 201 212 212 217 225 238 233 227 226 231 225 222 228 227 229 230 229 223 212 221 214 210 222 227 230 232 233 225 226 224 229 234 236 233 230 229 229 227 225 228 234 236 238 209 190 166 144 181 169 202 219 245 253 261 259 254 253 255 247 245 252 252 248 237 239
160 166 171 174 178 180 183 182 185 183 184 185 186 193 183 183 187 180 184 194 203 213 217 219 226 238 242 237 234 231 227 227 227 225 227 230 233 233 230 226 212 209 215 231 230 233 233 227 227 223 229 234 238 238 236 234 232 231 233 234 237 239 237 144 153 151 162 174 191 214 234 243 261 256 251 246 246 244 244 247 247 249 255 251 255
157 163 170 177 176 180 182 185 186 181 182 179 185 189 183 185 184 187 188 192 200 215 224 216 225 237 240 245 238 232 226 222 230 229 226 229 235 239 241 240 226 210 212 234 241 236 229 220 212 222 231 235 238 240 240 238 235 236 236 237 238 240 216 144 156 173 168 181 197 232 241 240 242 251 242 235 239 241 252 258 262 260 258 263 263
154 164 171 176 180 180 176 180 182 183 180 175 182 190 186 172 187 194 184 198 204 215 223 207 219 231 240 246 250 244 220 215 227 229 232 235 237 242 247 250 249 240 228 234 237 230 225 222 219 225 229 233 237 240 242 241 239 238 237 237 237 231 168 167 170 162 179 198 215 231 242 239 233 232 228 237 253 264 269 275 277 272 266 265 264
160 172 174 175 176 161 170 182 183 185 182 185 192 192 187 185 193 189 189 205 208 216 224 211 223 231 240 247 249 250 223 215 227 219 219 237 242 243 242 244 247 249 253 250 232 227 227 225 225 226 230 237 238 234 233 234 238 239 239 238 234 208 165 174 171 182 205 208 219 228 233 230 224 222 222 235 250 260 255 264 287 288 281 277 282
157 161 171 169 154 166 176 185 187 188 192 191 196 194 190 189 192 192 195 204 211 217 224 220 229 232 240 249 253 254 245 238 225 207 204 217 231 238 246 253 256 258 258 261 265 248 231 230 229 230 226 226 229 231 235 238 238 238 237 239 222 174 181 180 189 196 208 211 220 221 225 225 224 216 236 218 251 258 238 253 264 272 288 287 287
160 176 173 164 176 178 192 186 184 192 197 190 195 202 204 190 197 205 200 203 204 222 215 224 226 228 238 246 256 262 258 244 225 206 213 213 223 226 229 238 240 236 247 251 252 255 255 238 235 230 225 225 227 227 228 224 227 226 230 209 175 176 181 187 176 188 199 196 204 178 200 195 221 228 232 231 247 261 245 248 241 269 270 291 292
122 124 125 122 131 113 126 122 166 170 169 195 238 181 192 207 217 239 229 184 206 211 218 230 230 232 235 243 237 259 261 252 238 203 210 205 206 210 219 223 226 230 237 241 247 251 252 245 235 230 220 223 223 226 226 221 223 217 214 200 182 178 182 177 200 203 200 180 200 202 223 204 233 220 224 243 254 258 241 247 259 250 271 250 266
91 80 81 88 84 93 85 78 79 97 131 159 205 295 339 188 209 211 247 227 216 226 220 231 218 202 230 239 206 233 255 260 201 215 219 220 222 219 219 221 222 228 236 240 237 242 242 241 239 233 230 226 227 229 225 218 215 204 214 200 192 197 203 210 212 209 188 203 203 198 216 207 231 222 223 230 259 257 247 243 258 256 281 273 278
91 88 85 85 105 107 104 94 86 94 87 110 117 174 293 318 294 257 237 222 232 242 248 253 251 229 200 242 240 239 252 266 267 266 260 250 245 247 247 244 242 241 243 240 238 240 241 240 243 235 233 229 231 232 222 217 214 206 202 200 211 211 210 208 215 200 203 202 204 207 210 204 224 215 224 231 236 262 271 252 230 248 243 262 268
96 96 101 109 98 104 110 119 116 115 93 98 120 158 238 295 308 296 258 263 261 254 251 256 260 264 263 262 255 238 250 261 268 272 272 269 269 268 265 262 260 257 254 250 240 236 237 244 245 238 235 238 240 232 216 211 205 202 205 206 221 209 207 219 205 195 205 199 205 209 204 212 218 217 218 225 226 238 244 274 267 261 260 249 254
93 89 95 95 97 99 105 101 109 122 138 124 115 119 177 247 282 308 341 0 340 315 302 290 284 278 275 275 276 278 278 264 252 257 263 272 274 272 270 270 268 263 260 253 243 241 228 234 244 249 238 240 242 228 224 218 213 213 210 215 222 210 209 222 204 201 201 206 202 210 203 211 212 214 212 215 213 231 226 245 255 258 262 275 272
97 102 99 105 93 83 93 111 113 121 134 137 152 151 179 185 226 315 332 327 346 357 17 5 353 347 337 322 304 293 288 287 289 287 282 276 268 263 263 267 267 263 255 248 245 243 234 227 235 240 241 235 232 226 227 227 224 227 225 225 229 225 215 192 191 208 203 208 205 207 199 209 203 206 215 210 216 215 230 240 240 250 262 253 269
83 75 78 87 92 103 115 117 124 124 117 123 131 122 148 127 129 145 248 278 293 293 298 312 324 337 329 325 320 306 299 299 296 293 289 285 284 280 270 262 258 259 258 257 250 242 235 230 228 229 228 232 228 218 226 225 221 221 223 225 227 225 203 186 204 202 203 204 206 202 200 205 205 207 208 211 208 218 227 231 230 226 242 260 263
82 84 76 77 84 88 96 107 120 119 124 124 128 142 134 144 149 179 181 201 218 250 278 275 288 309 314 315 317 318 319 314 306 306 307 309 316 314 282 259 246 239 239 244 251 257 250 243 239 237 230 231 231 225 224 224 222 220 222 221 226 217 209 209 206 206 208 203 208 203 201 207 205 208 207 213 213 223 229 230 232 231 237 248 255
88 88 80 81 93 96 95 93 103 129 129 129 137 128 135 139 146 135 163 188 228 252 250 294 329 326 337 352 8 356 340 337 330 325 320 317 342 17 359 348 316 289 260 275 291 287 280 295 310 290 290 264 249 242 236 234 231 226 222 221 221 218 214 209 209 201 203 205 210 204 205 210 204 206 200 218 219 216 228 232 236 242 243 251 263
103 103 116 121 106 100 93 96 110 100 93 106 108 123 108 108 117 131 142 288 284 315 321 325 335 331 323 308 357 350 340 337 349 3 5 7 8 12 11 6 352 355 355 0 7 9 4 4 21 23 8 2 348 349 337 310 308 262 245 238 230 231 233 227 229 213 209 214 212 206 209 214 202 202 199 212 215 215 224 223 222 235 250 259 261
79 96 100 99 94 96 102 95 80 83 78 73 72 85 89 87 64 60 46 43 4 351 338 335 337 331 315 314 331 328 13 358 5 350 351 357 5 13 11 4 6 4 2 0 359 358 3 358 1 8 8 10 6 0 359 337 346 315 294 272 255 254 245 231 221 221 217 219 220 211 208 210 202 204 204 205 211 211 225 221 225 221 236 243 247
83 71 76 77 67 71 68 77 74 73 71 80 51 60 63 54 68 66 65 52 3 6 2 1 342 328 314 325 304 305 348 349 6 352 358 3 13 15 21 21 20 14 7 4 4 4 356 359 359 359 355 359 356 353 349 339 311 291 273 246 245 244 233 233 237 226 228 220 221 215 208 211 206 201 199 205 209 209 212 220 223 225 226 238 248
74 69 65 68 78 73 64 62 61 65 64 67 76 73 70 73 71 87 78 78 72 44 8 15 319 318 313 333 341 14 60 30 14 20 18 23 13 16 17 17 17 17 14 14 8 1 360 357 355 352 346 343 342 336 323 317 290 266 248 245 239 243 238 233 232 236 236 229 226 223 218 210 202 192 210 216 215 214 216 216 221 224 234 238 244
70 67 60 55 62 76 76 66 66 63 78 82 71 78 78 84 90 98 91 100 99 100 83 48 24 352 337 354 355 22 47 13 20 5 0 7 10 2 360 4 6 8 4 355 351 343 340 338 334 331 328 327 328 322 319 302 295 280 270 263 253 247 245 241 234 237 235 238 234 229 223 210 204 208 220 217 208 210 211 212 219 225 228 237 242
79 81 81 77 78 85 99 113 106 92 83 85 88 85 95 101 85 103 94 89 72 65 65 22 345 353 356 359 8 17 50 20 23 0 347 349 340 336 339 326 321 317 312 313 318 330 333 318 307 305 301 300 300 294 290 283 279 280 275 266 262 255 249 249 242 241 238 239 239 231 216 215 213 208 208 213 211 203 208 212 217 218 227 236 239
87 87 80 84 82 78 73 89 82 88 97 100 95 83 80 71 65 67 78 64 61 60 68 14 327 353 343 355 11 20 14 5 346 341 332 327 324 315 309 307 312 318 321 315 315 327 334 320 305 298 297 291 286 290 283 279 277 270 261 254 254 249 246 241 240 239 239 241 236 226 220 218 217 210 211 212 202 207 213 208 221 226 229 231 237
88 87 91 85 77 81 65 63 82 81 78 74 65 54 51 61 67 58 70 67 48 46 26 349 353 350 344 346 354 347 332 329 319 324 314 304 302 301 302 305 309 305 304 304 303 318 310 297 292 290 290 290 288 288 286 284 279 264 260 254 254 253 249 240 237 238 235 230 231 224 224 214 217 211 216 218 208 206 215 214 213 221 227 232 231
85 93 90 92 82 77 69 56 55 64 70 72 76 55 33 45 52 66 58 58 47 30 338 336 330 319 324 320 317 319 316 318 309 301 295 301 293 292 291 292 293 297 290 290 298 298 290 279 278 286 284 286 289 281 277 276 275 271 262 247 243 248 251 255 263 262 243 224 223 217 217 216 216 211 215 209 211 207 216 221 208 217 222 233 233
75 79 82 83 91 80 72 63 64 60 58 56 58 62 37 27 42 27 30 24 358 263 325 290 315 303 304 294 296 293 292 299 292 294 287 281 282 280 284 285 287 289 290 287 287 288 293 295 289 278 281 282 286 288 284 278 274 270 266 258 254 254 260 260 260 248 241 229 217 207 214 210 218 209 219 208 205 213 217 218 212 222 222 226 226
80 81 81 86 84 81 58 64 63 52 57 44 42 26 359 350 348 350 322 312 320 306 291 290 284 275 284 284 272 274 278 276 278 277 280 282 276 280 284 288 291 289 299 300 296 290 283 277 278 275 273 279 279 283 283 280 276 269 265 262 256 251 252 253 254 248 243 228 210 213 211 215 221 215 209 207 216 210 217 227 219 221 215 220 233
77 80 77 74 73 78 86 68 73 66 58 43 24 351 331 334 315 302 296 292 285 278 267 278 289 284 271 272 273 277 275 281 281 287 283 280 285 286 286 285 289 292 293 291 292 288 285 280 275 273 270 270 271 269 274 276 270 268 262 255 253 257 256 249 241 239 225 219 224 222 221 224 223 219 212 211 218 212 221 229 222 226 228 230 231
72 75 79 73 75 60 63 70 57 62 4 345 312 308 306 313 305 299 288 291 289 284 279 267 266 271 276 285 294 287 288 288 286 285 288 288 288 285 289 287 286 280 276 272 278 279 279 278 276 271 267 262 261 261 260 265 269 265 267 258 263 267 265 260 256 240 217 205 209 206 213 222 222 220 218 216 214 211 217 223 219 219 222 226 233
76 78 70 85 92 93 89 60 15 327 278 273 284 278 287 283 277 278 281 277 273 278 277 272 270 274 272 261 267 278 280 278 275 273 277 281 282 284 282 281 281 279 277 273 272 272 267 265 265 264 261 264 263 261 262 258 264 263 263 269 270 268 265 262 254 253 248 226 197 197 200 210 213 220 220 218 208 212 220 222 216 218 219 226 233